User: anonymous   Login
Location: *
(50.8512°N, 5.6907°E)
Time: 02:40:02
(UTC+00:00)
Language:

SeaSat 1 - Orbit

View from above orbital plane
View from above orbital plane
View from above satellite
View from above satellite

Ground track
Ground track

The orbit data is extracted from the following two-line orbital elements,

1 10967U 78064A   20192.47068112 -.00000085 +00000-0 +15262-4 0  9995
2 10967 108.0022 119.0767 0001749 311.7054 048.3941 14.43826127207917
Epoch (UTC): 10 July 2020 11:17:46
Eccentricity: 0.0001749
inclination: 108.0022°
perigee height: 744 km
apogee height: 747 km
right ascension of ascending node: 119.0767°
argument of perigee: 311.7054°
revolutions per day: 14.43826127
mean anomaly at epoch: 48.3941°
orbit number at epoch: 20791

The dashed part of the orbit path shows where the satellite is in the earth's shadow,  

DLR